Location: Gisborne
(38.6530°S, 178.0040°E)
Time: 06:51:35
(UTC+12:00)

Aureole 3 Rocket - Pass Details

Date: 24 January 2019
Orbit: 398 x 1743 km, 82.5° (Epoch: 22 April)

Event Time Altitude Azimuth Distance (km) Brightness Sun altitude
Rises 21:42:23 0° 191° (SSW) 2,467 7.0 -12.9°
Reaches altitude 10° 21:44:15 10° 194° (SSW) 1,667 6.1 -13.2°
Maximum altitude 21:47:46 67° 276° (W) 613 3.2 -13.7°
Drops below altitude 10° 21:52:21 10° 358° (N) 2,155 5.5 -14.4°
Enters shadow 21:52:52 - 359° (N) 2,376 5.7 -14.5°
